Location: ????????
(37.6846°N, 24.0673°E)
Time: 15:06:06
(UTC+00:00)

Cosmos 2016 Rocket - Pass Details

Date: 14 July 2020
Orbit: 948 x 999 km, 83.0° (Epoch: 03 August)

Event Time Altitude Azimuth Distance (km) Brightness Sun altitude
Exits shadow 00:09:03 64° 181° (S) 1,051 3.8 -26.2°
Maximum altitude 00:10:05 88° 95° (E) 965 3.9 -26.2°
Drops below altitude 10° 00:16:18 10° 7° (N) 2,717 7.2 -25.6°
Sets 00:18:50 0° 8° (N) 3,675 8.1 -25.4°
